Terminal Aerodrome Forecast
Issued by NWS King Salmon, AK

Home | Current Version | Previous Version | Text Only | Print | Product List | Glossary On
Versions: 1 2 3 4 5 6 7 8 9 10 11 12 13 14 15 16 17 18 19 20 21 22 23 24 25 26 27 28 29 30 31 32 33 34 35 36 37 38 39 40 41 42 43 44 45 46 47 48 49 50
000
FTAK31 PANC 060810 AAA
TAFAKN
TAF AMD
PAKN 060810Z 0608/0706 VRB03KT P6SM SCT015 SCT035 BKN045
      TEMPO 0609/0613 5SM BR
     FM061500 18004KT P6SM VCFG SCT008 BKN015
     FM062100 17012G22KT P6SM SCT008 BKN035
     FM070300 17015G25KT 3SM -RA BR OVC008=

USA.gov is the U.S. government's official web portal to all federal, state and local government web resources and services.